{"data":{"norad_id":54162,"epoch":"2026-09-20T22:00:03.000096Z","epoch_age_seconds":53790,"freshness":"FRESH","line1":"1 54162U 22141F   26263.91670139  .00045568  00000+0  13924-2 0  9991","line2":"2 54162  53.1606 215.4481 0001551 106.6524 223.5399 15.33459567  5705","mean_motion":15.33459567,"eccentricity":0.0001551,"inclination_deg":53.1606,"raan_deg":215.4481,"arg_perigee_deg":106.6524,"mean_anomaly_deg":223.5399,"bstar":0.0013924,"rev_number":570,"period_min":93.905312600916,"perigee_km":464.43838560508,"apogee_km":466.56128175089,"semimajor_km":6843.636833678,"source":"CELESTRAK","updated_at":"2026-09-21T09:00:33.088168Z"}}